Theta_e
322 326 327 326 327 331 338 346 353 357 357 353 351 346 338 337 337 337 339 338 336 336 338 332 333 334 332 334 338 337 338 334 337 334 334 337 341 345 347 350 351 352 352
322 326 328 329 331 333 338 341 343 345 345 341 340 337 336 335 334 335 337 336 334 336 335 336 333 335 330 336 335 338 334 334 337 335 333 329 331 334 339 344 347 350 350
322 325 327 329 331 332 334 335 337 339 338 339 336 335 335 332 330 332 334 335 334 334 335 336 335 336 335 328 337 336 338 328 334 339 336 327 323 328 335 341 343 347 347
322 324 325 326 327 328 331 333 334 335 334 336 335 336 328 327 327 329 330 328 330 330 330 331 331 333 331 335 332 330 333 336 329 332 338 341 339 328 327 332 336 342 344
320 321 322 325 326 327 327 329 330 330 330 331 330 326 326 325 327 325 326 328 328 327 325 327 328 328 327 332 332 332 335 331 329 329 332 337 334 337 332 326 329 333 336
318 320 321 322 322 323 324 326 327 327 327 326 327 327 323 323 321 323 321 320 320 322 324 324 326 326 326 327 329 333 334 335 334 331 333 333 333 330 329 329 330 331 334
316 316 317 318 319 319 319 322 323 323 324 322 322 322 322 322 323 322 319 320 318 319 322 324 323 322 325 326 327 329 332 334 331 335 328 331 336 340 337 334 329 328 330
316 315 316 317 317 318 318 318 320 321 320 320 320 323 320 319 319 320 319 318 318 318 322 321 321 322 323 323 325 324 326 334 331 333 336 329 332 340 340 333 329 327 328
315 314 315 316 317 318 319 320 320 321 321 320 321 321 321 321 320 321 321 318 320 318 319 319 320 320 321 323 325 323 326 329 334 334 336 331 330 338 340 343 341 335 325
314 314 314 315 316 318 318 320 320 320 320 320 320 319 319 320 320 320 319 319 319 319 318 318 319 320 321 322 324 323 326 328 327 327 333 335 338 339 340 338 336 337 331
308 310 312 314 315 316 317 318 318 318 318 318 318 318 318 319 319 318 318 318 318 318 317 317 318 318 320 323 323 325 327 327 328 330 328 328 330 328 330 328 327 326 324
310 310 310 311 312 313 315 316 317 316 317 317 317 317 318 318 318 317 317 317 316 317 316 317 317 319 320 322 323 323 325 326 324 324 322 322 322 324 325 324 322 317 315
307 308 309 310 311 312 313 315 315 315 316 317 316 316 316 316 316 316 316 315 315 315 315 316 316 318 320 321 322 323 326 324 320 317 315 316 319 319 318 316 315 313 311
307 307 308 309 310 311 308 310 313 315 315 316 315 314 314 315 315 315 314 313 313 313 314 316 317 317 320 321 321 320 321 318 313 313 313 312 314 313 313 312 311 308 305
304 305 306 307 308 310 309 308 308 311 312 312 313 313 313 314 313 314 313 312 311 309 311 312 316 317 318 319 317 318 316 312 310 310 310 309 308 306 307 311 308 306 302
301 302 304 305 306 306 307 308 308 309 311 310 310 310 310 309 309 309 308 309 308 308 309 312 312 315 315 305 307 313 310 309 308 309 309 309 308 305 303 303 302 304 300
302 302 303 304 302 301 302 304 307 308 308 307 307 307 306 305 305 306 305 306 307 308 308 310 313 312 311 302 303 306 308 308 309 309 309 308 307 307 305 303 303 302 301
298 298 297 299 302 303 302 303 304 303 303 302 302 303 302 302 302 303 304 305 305 306 309 309 308 306 305 301 301 304 307 306 307 309 309 308 307 306 306 305 304 304 303
297 296 296 299 301 300 301 300 299 299 298 298 299 299 300 299 301 303 303 305 304 308 307 306 304 303 303 300 300 303 304 305 305 307 308 307 306 298 299 305 303 302 301
297 296 296 297 296 297 297 296 295 295 295 296 298 298 298 299 298 299 303 305 307 304 303 302 302 301 300 297 298 301 301 300 300 303 304 297 301 295 297 306 304 301 300
294 295 294 292 293 294 294 293 293 293 295 296 297 297 298 299 301 300 303 303 301 300 299 297 298 298 298 297 296 296 299 299 298 298 300 299 294 294 295 299 304 301 303
292 292 291 291 292 293 292 291 291 294 295 296 296 296 298 299 301 301 301 300 299 297 296 296 296 297 297 296 295 295 295 299 297 295 296 297 292 293 294 299 295 295 299
290 291 289 290 291 291 293 292 294 295 295 295 295 296 297 298 300 299 298 297 297 296 295 294 294 294 296 296 295 294 294 296 297 297 295 294 293 293 296 294 294 296 302
289 290 289 288 289 295 295 295 295 296 296 295 295 296 298 298 299 299 298 296 295 294 294 294 293 294 295 295 297 298 298 297 298 299 300 298 298 297 300 301 300 300 300
289 289 289 290 292 295 295 296 296 297 295 296 296 295 295 293 293 294 295 295 295 296 295 295 295 294 294 295 294 296 300 301 298 302 302 300 300 299 299 300 301 301 300
290 290 292 292 293 293 295 296 297 296 295 294 294 294 294 294 294 293 291 291 292 292 291 292 294 293 292 291 291 291 291 292 293 298 296 296 296 296 297 297 297 299 300
Wind_Speed
4 5 4 4 6 7 7 8 9 9 7 7 6 7 7 7 6 6 6 5 5 4 4 5 5 6 7 9 10 11 12 11 11 14 13 14 15 15 15 14 15 16 17
7 8 9 9 9 10 10 11 11 10 8 6 5 6 6 5 5 5 4 4 4 5 6 7 8 8 8 10 10 10 11 11 9 12 13 13 12 14 15 13 13 17 15
8 9 11 11 11 12 12 12 12 12 10 11 9 7 7 5 4 3 1 3 5 6 7 9 9 9 9 10 9 11 13 13 11 12 9 9 12 12 10 12 11 12 12
8 9 11 12 12 11 11 11 11 11 9 8 7 7 4 2 4 2 2 5 5 7 9 10 10 11 11 12 11 11 10 11 13 12 10 13 15 12 13 11 11 10 12
7 8 9 9 9 9 9 8 9 10 9 8 6 4 2 3 0 3 4 6 6 8 11 11 12 12 11 12 14 14 13 12 13 13 12 13 14 13 8 12 12 14 13
6 7 7 6 6 7 7 7 7 7 6 6 6 5 3 2 4 4 6 6 7 8 10 11 12 13 13 14 13 14 15 13 13 13 14 12 11 13 12 12 13 14 14
7 6 6 6 4 4 5 5 5 5 5 4 3 2 1 2 5 5 6 7 8 9 10 12 13 13 14 15 15 14 15 14 14 13 14 12 13 12 12 13 14 14 13
7 3 2 5 6 3 4 4 5 5 4 3 2 3 3 5 5 5 6 8 9 10 12 13 15 16 17 16 15 14 13 14 12 15 13 15 13 12 12 14 13 14 14
6 4 7 8 9 10 8 8 7 7 6 5 4 5 6 7 8 8 8 9 10 11 14 16 16 16 17 17 16 13 14 14 13 14 14 14 13 12 12 10 9 11 12
7 10 10 13 14 12 12 8 9 9 7 7 7 6 7 8 9 9 11 12 12 14 15 16 16 15 16 16 16 14 14 14 12 12 14 14 11 11 9 8 7 9 11
16 19 21 23 15 15 13 12 10 10 9 9 9 8 9 10 10 10 11 12 12 14 14 15 15 15 15 16 14 15 16 16 15 14 14 11 8 7 7 6 5 6 5
17 16 15 17 15 14 15 13 11 10 10 9 9 10 10 11 12 11 11 12 14 13 14 14 14 15 15 15 15 12 12 13 11 13 10 8 5 7 5 5 5 4 4
21 19 18 17 18 17 16 16 13 12 10 9 11 12 12 13 13 13 11 12 13 14 14 14 15 14 15 15 11 12 13 9 7 6 6 6 7 6 6 6 5 5 4
22 20 21 19 16 16 12 13 15 13 13 13 13 14 14 14 13 13 12 12 13 15 15 14 14 15 15 14 9 7 6 4 3 4 7 8 8 6 5 5 5 5 6
23 24 25 21 19 16 13 11 14 17 15 16 15 15 15 14 14 13 12 12 13 13 14 16 14 14 11 4 6 4 0 4 7 7 9 12 14 19 17 6 7 7 7
24 20 19 19 16 13 17 16 14 16 15 17 17 17 15 14 13 13 12 15 15 13 13 14 13 10 6 7 3 4 7 6 6 7 9 12 17 20 24 24 26 15 11
26 25 20 19 17 16 15 19 17 19 18 18 17 15 13 13 12 14 16 17 13 11 13 11 10 5 4 6 9 9 6 5 5 6 8 9 9 13 15 21 24 25 25
25 20 19 19 17 15 19 20 20 20 19 17 16 14 13 15 15 14 13 10 9 9 11 9 1 3 5 8 9 10 7 7 8 8 9 11 12 12 14 16 19 18 16
18 15 19 23 22 20 19 20 19 17 16 16 15 13 11 11 9 10 10 7 8 11 5 2 3 7 8 9 10 9 7 9 8 11 12 12 13 7 7 15 17 17 15
24 20 21 21 18 19 16 15 17 15 15 14 12 10 10 12 8 7 8 6 6 2 5 6 8 12 11 11 11 9 6 9 9 13 13 18 11 11 8 14 14 13 10
22 21 18 15 15 15 14 15 14 13 13 11 10 8 8 8 7 6 6 4 4 7 8 10 11 12 12 13 16 11 7 10 8 8 10 9 12 13 15 13 12 10 8
19 17 16 15 15 15 13 13 13 10 9 9 7 7 6 4 1 0 1 6 7 9 9 11 10 9 12 16 20 19 13 4 8 9 7 9 12 10 9 10 6 2 6
16 15 14 15 13 14 11 10 10 9 7 7 7 5 3 4 3 5 6 7 8 8 8 8 9 8 8 10 17 13 10 10 8 8 8 10 11 11 8 3 5 3 6
14 12 13 12 13 8 7 5 6 7 7 7 6 5 4 6 7 6 6 8 7 7 8 9 10 9 9 7 6 6 9 8 9 10 9 12 9 7 6 7 9 8 8
12 12 11 9 12 8 7 6 6 6 6 7 8 9 9 11 12 11 8 9 8 8 8 9 8 8 8 7 7 6 6 8 8 8 8 9 9 9 9 7 8 7 7
12 12 12 11 11 11 11 10 9 11 12 11 9 8 9 9 10 12 13 22 20 20 18 14 10 10 13 15 14 15 15 12 9 10 10 9 8 8 8 8 7 8 8
Wind_Direction
46 39 42 80 102 116 131 142 141 144 158 163 155 152 137 124 116 97 88 83 47 20 331 305 305 302 301 312 298 298 297 288 290 290 276 272 270 261 254 251 260 257 251
86 73 77 86 91 101 107 109 112 120 125 132 79 101 120 106 101 102 92 60 15 333 301 311 308 303 299 290 293 296 298 289 279 280 291 289 272 264 255 244 246 267 264
105 96 90 93 100 100 103 102 103 102 102 121 122 117 118 138 148 125 142 45 308 299 292 293 290 290 281 283 296 291 297 292 291 280 271 280 267 297 296 291 268 256 275
120 115 113 106 103 102 101 101 101 103 96 100 93 71 84 134 61 263 7 305 288 299 296 292 296 298 297 293 279 272 294 287 287 282 273 251 267 282 286 280 283 267 258
141 133 119 115 112 115 104 99 98 93 88 82 86 136 94 132 347 321 332 309 289 302 306 307 308 301 292 296 298 286 279 285 285 281 272 275 273 260 262 279 279 278 270
143 130 118 125 121 128 121 112 99 90 87 83 80 79 103 16 320 335 308 301 313 305 304 311 308 305 296 287 289 292 282 276 284 290 289 278 271 275 272 256 262 271 273
182 175 174 166 161 157 151 158 152 146 138 132 128 134 154 268 267 283 300 313 298 302 306 312 302 302 300 295 289 283 283 277 276 281 286 281 271 271 273 278 274 272 278
199 241 309 294 283 241 261 256 232 213 212 217 225 247 270 271 282 266 304 294 304 298 309 296 294 294 294 291 288 279 275 282 275 279 282 284 278 274 261 258 287 288 278
246 287 332 318 307 301 274 271 257 245 250 264 269 268 276 279 297 290 283 284 297 297 298 298 291 288 288 288 288 278 276 277 275 276 278 273 281 269 270 275 266 266 278
295 281 313 309 310 284 279 258 268 264 265 275 274 272 281 274 273 277 283 289 291 292 295 292 288 287 286 287 283 278 270 269 274 281 290 302 293 286 283 289 297 286 276
331 329 321 315 304 293 273 262 249 245 253 269 274 280 283 280 273 278 286 290 296 294 293 292 290 288 289 289 284 280 277 272 281 300 302 295 297 296 292 293 294 291 318
317 311 307 310 301 283 284 276 256 256 253 257 284 285 290 284 275 286 291 297 298 298 295 291 289 289 292 291 288 288 288 276 299 304 305 293 299 288 303 302 314 333 340
311 312 314 313 304 311 317 297 278 271 282 281 278 289 295 290 287 289 289 298 299 297 294 294 290 292 294 292 297 300 298 323 318 330 328 321 329 351 346 344 340 360 14
312 309 309 304 299 296 296 311 297 287 291 288 285 287 291 290 287 281 282 293 300 300 293 299 292 294 288 297 308 305 319 335 24 28 31 22 13 4 5 20 26 43 66
302 303 306 306 309 286 282 292 299 301 293 287 283 289 291 289 286 273 280 300 296 297 301 286 293 295 306 307 313 294 88 116 82 68 68 60 61 55 39 35 52 65 79
308 313 318 317 316 324 310 302 285 279 291 293 291 292 292 285 279 274 293 294 285 282 281 287 294 302 310 342 305 137 117 97 106 105 95 89 83 71 67 67 57 58 83
312 311 315 311 304 292 282 280 291 299 291 291 291 287 280 281 282 279 280 273 273 276 276 287 305 307 359 71 95 100 102 112 109 116 104 99 101 92 90 83 77 68 68
309 298 297 283 276 290 290 287 284 284 285 286 284 281 284 281 278 272 275 277 266 267 272 307 332 78 77 89 93 88 85 83 78 89 102 93 89 92 95 90 82 69 63
308 313 301 290 289 289 289 288 288 289 288 283 279 279 281 275 304 274 281 276 264 265 316 79 107 102 91 80 86 93 91 96 101 99 89 96 94 38 64 89 89 86 81
305 315 309 300 295 293 294 283 277 275 269 270 270 260 263 266 248 291 289 293 342 2 94 88 79 79 76 61 70 84 95 103 106 97 81 45 59 31 30 97 92 88 91
310 307 300 293 288 286 279 273 271 263 262 264 262 258 262 276 236 251 288 351 95 100 92 85 76 75 73 60 53 51 55 82 73 70 82 76 48 39 40 57 82 79 96
309 307 304 299 298 293 282 272 261 253 243 238 234 236 239 272 136 182 19 111 110 100 97 94 90 82 79 74 66 58 54 91 88 91 81 79 61 51 62 91 99 108 81
314 313 307 306 309 303 286 279 284 208 196 194 198 189 161 207 107 96 104 101 94 97 101 99 95 89 84 78 69 77 82 71 90 98 109 112 106 112 101 112 242 246 60
320 320 319 316 314 348 6 28 74 126 144 132 128 150 136 100 94 89 86 88 93 100 98 96 96 98 89 91 96 94 97 123 116 112 88 90 89 86 122 85 66 63 46
325 325 327 344 358 15 34 46 70 102 116 115 100 94 88 86 80 66 70 81 64 76 99 91 96 100 100 87 77 83 106 93 55 100 92 75 66 65 58 55 56 42 42
335 344 354 7 17 34 40 46 60 85 95 94 93 91 94 90 89 89 82 61 75 74 73 75 84 75 91 86 81 76 70 55 46 86 85 79 68 62 57 56 55 43 36